Location: Kalberh�ni
(46.4610°N, 7.2453°E)
Time: 04:40:15
(UTC+00:00)

Cosmos 1802 Rocket - Pass Details

Date: 23 October 2021
Orbit: 955 x 1010 km, 82.9° (Epoch: 05 December)

Event Time Altitude Azimuth Distance (km) Brightness Sun altitude
Exits shadow 21:42:44 10° 312° (NW) 2,671 6.8 -50.1°
Drops below altitude 10° 21:43:08 10° 316° (NW) 2,697 6.8 -50.2°
Sets 21:48:22 0° 354° (N) 3,658 7.5 -50.7°
